Regional Weather Roundup
Issued by NWS Goodland, KS

Home | Current Version | Previous Version | Graphics & Text | Print | Product List | Glossary On
Versions: 1 2 3 4 5 6 7 8 9 10 11 12 13 14 15 16 17 18 19 20 21 22 23 24 25 26 27 28 29 30 31 32 33 34 35 36 37 38 39 40 41 42 43 44 45 46 47 48 49 50
000
ASUS43 KGLD 281408
RWRGLD

GOODLAND FORECAST AREA HOURLY WEATHER ROUNDUP
NATIONAL WEATHER SERVICE GOODLAND KS
800 AM MDT WED JUN 28 2017

...OFFICIAL OBSERVATIONS...

CITY           SKY/WX    TMP DP  RH WIND       PRES   REMARKS
GOODLAND KS    SUNNY     67  58  72 N10       29.85R
HILL CITY KS   SUNNY     76  68  76 S20G32    29.76R
IMPERIAL NEB   SUNNY     71  51  49 NW13      29.84R
MCCOOK NEB     SUNNY     72  60  66 W9        29.78S
AKRON CO       SUNNY     67  44  43 W10       29.95R
BURLINGTON CO  SUNNY     70  51  51 N15       29.88R
LIMON CO       SUNNY     69  44  40 N9        29.99R
$$

...UNOFFICIAL OBSERVATIONS...

CITY           SKY/WX    TMP DP  RH WIND       PRES   REMARKS
LENORA KS        N/A     77  32  19 MISG        N/A
NORTON KS      SUNNY     79  61  53 SW16G22   29.77R
SHARON SPRINGS   N/A     68  63  84 N6          N/A
TRIBUNE KS     MOSUNNY   70  63  78 NW13      29.85R
TRENTON NEB      N/A     69  32  25 NW9         N/A
KIT CARSON CO    N/A     73  49  43 MISG        N/A
YUMA CO        FAIR      68  43  40 NW10      29.91R
$$




USA.gov is the U.S. government's official web portal to all federal, state and local government web resources and services.